Regional Weather Roundup
Issued by NWS

Home | Current Version | Previous Version | Text Only | Print | Product List | Glossary Off
Versions: 1 2 3 4 5 6 7 8 9 10 11 12 13 14 15 16 17 18 19 20 21 22 23 24 25 26 27 28 29 30 31 32 33 34 35 36 37 38 39 40 41 42 43 44 45 46 47 48 49 50

000
ASUS45 KBOU 020407
RWRCO

WEATHER ROUNDUP FOR COLORADO
NATIONAL WEATHER SERVICE DENVER/BOULDER CO
900 PM MST SUN MAR 01 2015

NOTE: "FAIR" INDICATES FEW OR NO CLOUDS BELOW 12000 FEET WITH NO
SIGNIFICANT WEATHER AND/OR OBSTRUCTIONS TO VISIBILITY.

COZ001>005-013-030-031-020500-
...NORTHWEST COLORADO...

CITY           SKY/WX    TMP DP  RH WIND       PRES   REMARKS
CRAIG          MIX PCPN  30  26  85 SW3       30.07S
HAYDEN         CLOUDY    30  21  69 E3        30.06S
MEEKER         CLOUDY    31  26  82 CALM      30.05F
MOUNT WERNER   NOT AVBL
STEAMBOAT SPGS CLOUDY    28  23  82 SE3       30.07S
WALDEN         CLOUDY    27  19  74 S6        30.05R WCI  20
$$

COZ006>008-011-020500-
...WEST CENTRAL VALLEYS...

CITY           SKY/WX    TMP DP  RH WIND       PRES   REMARKS
GRAND JUNCTION CLOUDY    38  34  85 E7        30.05F
MONTROSE       LGT SNOW  33  32  96 SE3       30.09S FOG
EAGLE          CLOUDY    34  30  86 CALM      30.09F
RIFLE          CLOUDY    39  28  64 CALM      30.05F
DELTA          CLOUDY    38  36  91 NE3       30.08S
NUCLA          FLURRIES  34  34 100 CALM      30.09F
$$

COZ017>023-064>068-020500-
...SOUTHWEST COLORADO...

CITY           SKY/WX    TMP DP  RH WIND       PRES   REMARKS
DURANGO        MOCLDY    34  32  92 E3        30.11S
CORTEZ         MOCLDY    34  33  96 CALM      30.07S
PAGOSA SPRINGS CLOUDY    34  34 100 CALM      30.15R
TELLURIDE      LGT SNOW  33  32  96 CALM      30.10S
WOLF CREEK PAS CLOUDY    23  23 100 SW25G38   30.17S WCI   7
$$

COZ009-010-012-014-032>034-037-058>063-020500-
...CENTRAL COLORADO...

CITY           SKY/WX    TMP DP  RH WIND       PRES   REMARKS
ASPEN          LGT SNOW  29  27  92 W3        30.04F FOG
BUENA VISTA    LGT SNOW  22  20  91 SE13      30.12S WCI  10
COPPER MTN     LGT SNOW  25  19  80 S22       30.07F WCI  10
BERTHOUD PASS  LGT SNOW  16   9  73 S5        30.11S WCI   9
COTTONWOOD PAS LGT SNOW  30  27  86 CALM      30.10S VSB 1
GUNNISON       CLOUDY    28  27  93 CALM      30.13S
KREMMLING      FLURRIES  32  27  80 E5        30.09S WCI  27
LEADVILLE      LGT SNOW  23  22  96 S6        30.07F FOG     WCI  16
SALIDA         CLOUDY    22  19  87 SE14G21   30.21S WCI  10
SUNLIGHT       CLOUDY    27  25  93 CALM        N/A
WILKERSON PASS LGT SNOW  23  21  93 CALM      30.14S
$$

COZ069>075-020500-
...SAN LUIS VALLEY/SANGRE DE CRISTO MOUNTAINS...

CITY           SKY/WX    TMP DP  RH WIND       PRES   REMARKS
ALAMOSA        MIX PCPN  29  28  96 CALM      30.11S
LA VETA PASS   SNOW      30  28  93 S10G18    30.14S VSB 1/2 WCI  21
SAGUACHE       CLOUDY    32  30  93 CALM      30.13S
$$

COZ035-036-038>040-020500-
...NORTHERN COLORADO FRONT RANGE...

CITY           SKY/WX    TMP DP  RH WIND       PRES   REMARKS
DENVER INTL AP CLOUDY    22  17  81 SE8       30.21F WCI  12
DMNS CITY PARK   N/A     24  16  70 E2        30.21F
AURORA         MOCLDY    22  16  80 SE6       30.21F WCI  14
FRONT RANGE AP NOT AVBL
ERIE MUNI ARPT CLOUDY    24  20  83 CALM      30.23S
BOULDER MUN AP CLOUDY    27  19  74 CALM      30.22F
CENTENNIAL     FLURRIES  22  16  78 SE3       30.19F
BROOMFIELD     CLOUDY    23  18  80 CALM      30.21F
FORT COLLINS   MOCLDY    23  18  80 S5        30.24S WCI  17
LONGMONT       CLOUDY    26  18  72 CALM      30.25S
$$

COZ041-046-047-076>085-087-088-020500-
...PIKES PEAK/PALMER DIVIDE AND SOUTHERN FOOTHILLS...

CITY           SKY/WX    TMP DP  RH WIND       PRES   REMARKS
COLO. SPRINGS  LGT SNOW  21  19  92 S12       30.24R FOG     WCI   9
A. F. ACADEMY  CLOUDY    20  17  89 S10       30.19F WCI   9
ELLICOTT       NOT AVBL
FALCON         CLOUDY    19  18  94 S9        30.20F WCI   8
FORT CARSON    CLOUDY    22  19  86 S10       30.24R WCI  11
LIMON          LGT SNOW  22  20  92 S5        30.25S FOG     WCI  16
MONUMENT HILL  LGT SNOW  19  16  86 S15       30.15S WCI   5
TRINIDAD       CLOUDY    23  17  78 CALM      30.25S
$$

COZ042>045-048>051-090-091-020500-
...NORTHEAST COLORADO...

CITY           SKY/WX    TMP DP  RH WIND       PRES   REMARKS
GREELEY ARPT   CLOUDY    27  14  59 CALM      30.24S
AKRON          CLOUDY    27  19  72 CALM      30.26S
BURLINGTON     CLOUDY    29  21  72 S7        30.31S WCI  22
WRAY           MOCLDY    31  17  54 S5        30.32S WCI  27
STERLING       CLOUDY    27  21  80 CALM      30.28S
HOLYOKE        NOT AVBL
FORT MORGAN    CLOUDY    26  19  74 E5        30.28R WCI  21
$$

COZ086-089-092>099-020500-
...SOUTHEAST COLORADO...

CITY           SKY/WX    TMP DP  RH WIND       PRES   REMARKS
PUEBLO         CLOUDY    26  21  81 SW5       30.29R WCI  20
LA JUNTA       CLOUDY    29  21  72 CALM      30.31S
LAMAR          PTCLDY    27  22  81 S5        30.33R WCI  22
SPRINGFIELD      N/A     25  21  85 N3        30.31R
$$



USA.gov is the U.S. government's official web portal to all federal, state and local government web resources and services.